Theta_e
315 317 318 322 325 325 328 327 330 331 325 327 331 327 320 319 319 319 322 320 320 323 319 318 318 316 317 318 320 323 322 323 325 323 325 329 324 323 327 327 327 327 327 327 331 335 335 336 337 338 340 339 339 339 339 339 339 339 339 339 336 335 336 335 335 336 336 335 335 334 334 334 335 333 333 336 335 332 330 330 329 330 332 330 328 324 326 333 331 334 341 341 342 339 335 337 336
316 318 320 325 325 324 329 329 332 335 329 327 329 327 321 318 320 325 327 325 326 321 317 317 316 315 315 316 316 317 319 319 320 326 327 322 324 326 324 326 326 326 328 327 330 334 335 335 336 338 339 339 339 338 338 339 339 339 338 338 334 333 336 335 335 337 336 336 335 335 334 333 334 332 333 336 336 334 332 333 331 330 332 331 330 325 326 334 332 337 342 341 341 338 337 338 335
317 320 321 324 324 324 331 328 329 334 326 324 327 326 319 320 324 327 327 325 324 317 315 316 314 315 315 316 315 316 318 318 316 327 329 317 323 325 321 325 324 324 326 328 330 332 334 334 336 338 338 338 338 338 338 338 339 338 337 337 335 333 335 335 334 336 336 336 336 336 335 333 333 333 333 335 335 335 334 336 336 333 332 331 332 328 326 333 335 340 342 340 340 337 339 338 334
320 322 321 324 324 327 341 336 333 332 322 323 324 323 324 326 326 326 325 320 316 314 316 315 316 315 314 317 315 314 316 318 316 322 329 317 319 321 321 323 322 323 323 326 328 330 333 334 336 337 337 337 337 338 338 338 338 337 337 337 336 334 336 336 334 335 336 336 336 336 336 336 335 334 335 336 335 334 335 336 338 336 333 332 334 333 327 332 338 341 340 339 339 337 339 338 335
321 323 320 324 327 327 336 331 331 329 321 327 321 322 329 328 326 324 323 320 317 316 318 316 317 315 312 315 313 315 318 318 315 314 320 318 318 319 322 323 322 322 321 323 325 327 332 334 336 336 336 336 337 338 338 339 337 337 337 335 336 336 337 338 336 336 336 335 336 337 337 337 336 335 336 337 336 334 335 336 337 336 335 333 335 334 328 333 340 341 340 339 339 338 339 338 336
320 322 320 320 322 320 326 322 325 326 323 327 322 326 328 322 322 321 319 319 318 317 317 315 316 314 313 314 312 315 318 315 317 316 316 318 319 319 321 323 322 322 321 321 322 325 328 332 334 335 336 336 337 337 337 338 337 337 337 336 336 336 337 338 336 335 335 335 336 336 335 335 335 335 336 336 336 335 335 336 336 337 336 334 334 333 330 336 340 340 340 340 340 339 339 338 336
318 321 323 322 321 320 327 325 324 329 323 321 323 327 324 320 318 317 317 316 318 315 313 314 313 313 315 313 311 313 313 313 318 320 317 317 319 319 322 324 324 323 321 320 320 323 326 330 332 334 335 336 336 336 337 337 337 338 337 336 336 336 338 337 335 335 334 334 335 335 334 333 334 335 334 335 336 336 336 336 336 337 337 335 333 332 331 338 340 340 341 340 340 339 338 336 335
315 321 325 329 329 325 331 326 324 328 321 317 320 322 320 320 316 314 318 316 316 313 311 314 312 313 314 311 313 314 311 312 315 316 317 317 319 321 323 324 325 324 322 320 319 321 324 329 331 333 334 335 335 335 337 337 337 337 336 336 336 336 337 336 334 334 333 333 333 333 333 334 334 334 333 333 334 336 336 336 336 337 337 336 334 331 333 340 341 341 340 340 340 338 337 335 334
314 319 324 327 324 326 331 325 319 321 321 320 319 320 319 319 317 314 316 316 314 313 312 312 311 312 313 311 313 314 310 312 313 313 315 315 318 321 324 325 325 324 322 319 318 319 322 326 329 331 332 333 333 333 335 336 337 337 336 335 336 336 335 334 333 333 332 332 332 331 332 333 334 333 333 333 333 335 336 336 336 336 337 337 335 332 336 341 341 340 340 339 338 335 335 332 331
315 317 323 325 321 323 327 322 319 319 322 320 316 317 317 315 315 314 314 317 314 313 311 308 309 310 312 311 312 313 312 312 312 312 313 313 317 320 323 325 325 324 323 320 317 319 320 324 326 329 331 332 332 332 333 335 337 336 336 335 335 335 334 334 332 332 332 331 331 331 332 332 333 332 333 333 333 335 335 336 336 336 337 337 336 335 338 340 341 341 339 338 335 332 331 329 328
322 323 326 328 323 322 323 321 320 319 318 315 316 318 315 311 310 312 313 314 312 311 310 307 310 312 311 311 313 313 311 312 312 312 312 313 316 320 323 324 325 324 324 321 317 318 320 323 326 328 329 331 332 332 332 334 335 335 335 335 335 334 333 332 331 332 331 331 330 331 333 332 332 332 332 333 333 334 334 335 336 336 337 337 337 337 339 340 340 340 339 338 333 329 328 327 327
323 328 331 329 319 319 322 322 320 321 320 317 320 318 311 310 310 314 314 313 314 313 311 309 310 312 311 313 317 312 308 311 311 311 312 313 316 320 323 323 324 324 323 321 317 317 319 323 326 328 329 330 331 332 332 333 334 334 335 335 335 334 332 332 331 331 330 330 331 331 332 332 332 332 333 333 332 333 333 334 335 336 337 338 338 338 340 339 338 339 338 336 332 328 327 328 327
327 328 331 323 317 320 321 323 325 324 324 322 319 313 307 310 314 316 315 313 313 313 312 310 309 310 312 315 315 312 310 310 311 311 312 313 316 320 323 322 322 323 322 319 317 317 317 321 325 327 328 330 331 331 332 332 333 333 334 335 335 333 332 332 331 330 330 330 331 331 331 332 331 331 332 333 332 332 334 335 335 335 336 338 338 339 340 338 338 339 336 333 330 327 327 328 326
327 331 330 320 318 324 323 323 325 322 321 322 319 312 308 312 317 315 313 313 312 313 311 307 308 310 312 313 314 318 314 309 311 312 312 314 316 320 323 322 321 320 319 317 316 316 316 320 323 325 327 330 330 330 331 332 332 332 333 334 334 333 333 332 331 330 330 330 330 330 330 331 331 331 331 332 332 332 334 335 335 335 335 337 337 338 339 338 339 339 335 331 329 327 327 328 324
321 329 332 326 323 324 324 321 320 318 319 320 317 312 310 313 314 312 312 313 312 311 307 305 307 310 313 313 315 319 313 309 312 312 313 315 316 320 323 322 320 318 316 315 314 315 315 317 320 322 325 329 330 330 331 331 331 331 332 334 333 333 333 332 332 331 330 330 330 330 330 331 330 329 329 331 333 333 335 334 334 334 334 335 335 337 338 337 338 336 333 330 328 327 327 325 323
320 327 329 325 323 320 323 321 317 317 319 318 314 310 311 313 310 311 310 310 311 309 308 308 307 309 314 314 313 312 309 310 311 312 314 315 317 319 321 319 317 315 313 312 313 314 315 316 318 320 323 327 330 330 330 330 331 331 332 334 333 333 332 332 332 331 330 330 330 329 330 330 329 327 327 330 333 334 334 334 334 333 333 334 334 336 338 338 337 335 333 331 328 327 325 323 322
322 330 329 324 322 320 322 322 317 316 318 318 314 310 311 311 309 309 307 307 309 308 309 310 308 308 311 311 310 309 309 311 311 312 314 315 317 317 317 316 314 312 311 311 312 313 315 316 317 320 323 326 329 329 329 330 330 331 332 333 332 331 331 331 331 331 329 329 329 329 330 330 328 326 327 330 333 334 334 334 333 333 332 333 333 334 336 338 337 335 334 332 329 326 324 323 322
327 330 325 323 325 324 323 324 321 316 315 316 314 310 310 311 310 308 307 308 309 308 308 307 307 308 307 308 308 309 309 309 310 312 314 315 315 314 315 314 313 313 312 312 312 313 315 317 318 320 323 325 326 328 328 329 330 331 332 332 330 329 330 330 329 329 329 328 329 329 329 329 328 325 326 331 333 333 333 333 333 333 332 332 331 332 334 337 336 335 334 332 329 325 324 323 322
329 327 320 328 330 324 321 323 322 316 315 316 314 310 309 311 309 307 309 311 309 309 309 308 309 309 308 306 306 307 307 306 309 311 313 314 314 313 314 313 313 313 313 313 312 313 313 316 318 321 324 324 324 327 328 328 330 331 332 331 329 329 330 329 329 328 328 328 328 329 328 328 327 325 327 330 332 332 332 332 332 333 332 331 330 330 331 333 332 332 332 330 328 325 323 322 322
324 321 322 334 328 321 319 319 318 315 314 314 314 311 309 310 307 307 309 310 310 310 311 311 312 313 312 310 307 304 305 306 308 311 313 313 313 313 313 313 313 313 313 313 313 313 313 316 317 320 325 325 323 326 329 328 329 331 331 331 328 328 329 329 328 328 328 328 328 328 328 328 327 326 328 330 332 331 331 331 331 332 331 331 330 328 329 329 329 329 328 327 326 325 324 323 322
316 317 326 331 319 316 319 318 317 315 312 312 313 311 310 309 306 307 308 310 312 312 312 312 312 312 311 313 309 303 306 310 308 310 312 313 313 313 313 313 313 313 313 313 313 313 313 315 316 320 324 325 324 326 329 328 328 329 330 330 329 328 328 328 328 327 328 327 327 327 328 328 327 327 328 330 331 330 330 330 330 331 330 330 329 328 327 327 328 329 327 325 325 324 325 323 322
314 317 323 322 315 314 316 317 318 315 312 311 312 311 309 308 307 308 308 310 313 313 313 312 311 311 309 309 308 306 312 317 313 312 312 312 312 312 313 313 313 313 313 313 314 314 314 315 315 319 324 325 324 326 329 329 328 327 328 329 330 329 328 328 327 327 327 327 327 327 327 327 327 328 329 330 331 330 330 329 329 330 330 330 329 328 327 326 327 327 326 324 323 322 324 323 321
314 319 317 316 314 314 315 314 314 312 310 310 311 310 307 307 308 308 308 310 311 312 311 310 309 308 305 304 306 308 312 316 316 314 310 310 311 311 312 312 312 313 313 314 314 314 315 315 314 319 324 325 324 325 328 330 329 327 326 328 330 329 328 327 327 326 326 326 326 326 325 325 327 329 330 330 330 330 330 329 329 329 328 329 329 328 327 326 326 326 325 324 323 321 322 324 321
312 318 318 315 313 312 313 311 310 309 308 309 308 308 308 309 310 307 308 309 310 310 309 307 306 304 303 305 306 307 309 309 308 307 306 308 309 309 310 311 312 312 313 313 314 315 315 315 315 319 324 325 325 325 328 330 329 327 326 328 330 329 328 327 327 326 326 326 326 325 324 324 327 330 330 329 329 329 330 329 329 327 325 326 327 328 327 326 326 325 325 324 324 321 321 322 320
313 318 318 314 312 310 309 309 309 308 308 308 305 308 312 311 309 308 309 310 310 309 308 307 306 307 310 310 307 306 308 309 306 304 305 306 306 307 308 310 311 312 312 313 314 315 315 316 317 320 323 325 326 325 328 329 329 327 327 329 330 329 328 327 327 326 326 326 326 324 323 324 327 328 329 329 329 329 329 329 327 325 324 324 325 328 327 326 326 326 325 324 324 322 321 321 320
313 316 316 312 311 309 307 308 309 308 307 306 306 311 315 310 308 310 312 313 312 308 309 310 309 313 315 312 309 307 308 310 308 305 304 304 304 305 306 308 310 311 312 312 314 314 316 318 319 320 322 324 326 326 328 329 328 328 328 330 330 329 328 327 327 326 326 326 324 323 322 323 324 326 328 328 328 329 329 328 326 324 323 322 324 327 327 326 325 325 325 324 324 322 321 320 320
311 312 312 310 310 308 307 310 309 309 309 307 309 313 314 310 308 312 314 314 312 309 310 311 311 314 314 312 309 308 309 309 307 304 304 304 304 304 304 306 307 308 310 311 312 313 315 318 319 320 321 323 325 326 328 328 328 328 329 330 330 329 329 328 326 326 326 325 324 323 321 322 321 323 328 328 327 329 328 328 326 324 323 320 321 326 326 325 325 324 324 324 324 323 321 320 320
308 309 310 311 312 310 310 312 311 311 311 308 309 310 310 308 309 314 314 311 311 311 311 310 311 312 312 312 310 309 309 306 304 303 304 304 303 303 303 303 304 305 307 308 310 312 315 316 318 320 321 323 325 327 327 327 327 327 328 329 329 329 328 328 326 326 325 324 323 322 321 322 320 321 327 328 327 328 328 327 325 324 323 318 318 324 325 324 324 323 323 323 323 323 321 319 319
308 308 310 315 316 314 312 312 312 313 311 308 308 309 310 311 314 317 314 310 312 312 311 310 311 310 310 310 308 308 307 303 303 304 304 303 303 303 302 303 303 303 304 305 307 310 312 314 317 320 321 323 325 327 326 326 326 326 326 326 327 328 328 327 326 325 325 323 323 323 323 323 320 320 326 328 326 327 327 326 325 324 323 319 318 322 324 324 323 323 323 323 322 322 320 319 319
309 307 310 316 316 317 315 311 313 313 312 310 310 313 314 315 316 317 314 312 312 311 310 310 311 310 309 308 307 306 305 304 304 303 303 303 303 303 303 303 303 302 302 303 305 307 309 312 316 319 321 322 324 326 327 326 326 326 325 325 326 326 327 327 326 325 325 324 323 323 324 323 322 321 324 327 326 326 326 325 325 324 323 322 319 319 322 323 322 322 322 322 322 322 321 320 320
314 310 315 319 316 319 318 312 313 313 312 312 313 315 315 314 314 315 314 311 311 311 310 309 309 309 309 308 306 306 305 304 303 304 304 303 303 303 303 303 303 303 303 303 303 304 306 310 314 318 320 322 323 326 327 326 326 325 325 325 325 325 326 327 326 325 325 325 324 324 324 322 322 321 323 326 326 326 325 325 324 322 322 322 321 319 321 322 322 322 322 321 321 321 321 320 320
320 313 319 321 314 316 314 312 314 311 311 313 313 316 314 312 313 313 312 311 311 311 310 309 308 308 307 306 306 306 306 304 303 304 304 303 302 302 302 302 302 302 302 303 303 303 304 306 310 315 319 321 322 324 326 326 326 325 325 325 325 325 325 326 326 325 325 325 325 324 323 322 321 321 323 325 326 325 325 324 324 322 320 320 320 321 321 321 321 321 321 322 321 319 320 320 320
323 317 318 319 315 314 312 312 313 309 311 312 312 313 313 312 312 311 311 311 311 309 309 308 307 307 306 305 305 306 305 304 304 303 303 302 301 301 301 301 301 302 302 302 303 304 304 305 307 312 315 319 321 322 325 326 326 325 325 324 324 324 324 325 325 325 325 324 324 324 322 322 321 321 322 321 323 325 324 324 323 321 320 319 319 319 320 320 320 321 320 321 321 320 320 319 319
324 321 318 318 315 313 313 313 312 310 311 311 310 311 311 312 311 310 310 311 310 308 307 307 307 306 305 305 305 305 304 304 303 303 301 300 300 300 300 300 301 301 301 301 302 303 304 305 306 309 312 316 319 321 323 326 326 325 325 325 324 324 324 324 324 324 324 324 323 323 322 322 322 322 321 318 320 324 324 324 323 322 320 319 316 315 318 319 319 320 319 320 321 320 320 318 318
319 319 317 316 314 313 314 314 312 310 310 311 312 312 311 311 310 310 310 310 309 307 306 307 306 305 305 305 304 304 303 302 302 301 300 299 299 299 299 300 300 301 301 301 301 302 302 304 306 308 310 312 316 319 322 324 326 326 326 325 324 324 324 324 324 324 323 323 323 323 322 322 323 321 319 318 319 322 324 323 323 322 319 317 315 314 317 318 318 319 318 318 320 320 320 320 319
315 315 314 314 314 312 312 313 313 310 310 312 313 312 310 310 310 310 309 308 307 307 306 306 305 305 305 304 303 303 302 301 300 299 298 298 298 298 299 300 300 301 301 301 301 301 301 302 304 306 308 310 314 318 320 322 324 325 325 325 324 323 323 323 323 323 323 323 323 323 322 322 321 319 318 318 320 322 323 322 322 321 319 317 315 315 316 317 317 318 317 316 318 317 318 319 319
313 314 314 314 314 312 311 312 312 311 311 312 312 310 309 310 310 309 308 306 307 307 307 305 305 305 304 303 301 301 300 300 299 298 298 298 298 298 299 300 300 300 301 301 301 301 301 301 302 304 306 309 313 316 319 320 322 324 324 324 323 323 323 323 323 323 323 323 323 322 322 321 319 318 317 318 321 323 322 321 321 320 318 318 316 314 315 316 316 317 316 316 317 315 314 316 318
314 315 314 315 314 312 311 311 312 311 310 310 310 309 309 309 309 308 307 306 307 307 306 305 305 304 303 301 300 299 299 299 298 298 298 297 297 298 299 300 300 300 300 300 300 301 301 301 301 302 303 306 310 313 317 319 322 323 323 323 322 323 323 323 323 323 323 323 323 322 321 321 319 318 316 315 318 319 318 319 320 319 318 318 317 314 313 314 315 316 316 314 315 315 314 315 317
315 316 315 316 314 313 312 311 311 310 309 310 309 310 309 309 308 306 306 307 307 306 306 307 305 303 302 300 299 298 298 298 298 298 297 297 297 297 299 300 300 300 299 299 299 300 300 300 301 301 302 303 306 309 314 317 319 321 322 322 322 322 322 322 323 323 323 323 322 322 321 321 320 318 316 313 314 315 316 317 318 318 318 317 316 313 311 312 313 314 316 314 313 313 313 313 316
317 316 316 316 314 312 311 310 309 307 309 311 311 310 309 307 306 305 306 307 306 305 306 306 305 305 302 300 298 297 297 297 297 297 297 297 296 297 298 300 300 300 299 299 299 299 299 300 301 301 302 302 303 305 310 313 316 318 320 321 322 322 322 322 322 322 322 322 322 321 321 321 320 319 317 314 314 314 315 316 316 316 318 317 315 313 311 311 312 313 315 316 313 311 309 310 313
321 318 315 314 313 311 310 309 308 306 308 311 309 307 306 305 305 305 306 306 304 304 304 301 302 304 302 298 297 297 298 297 297 297 296 296 296 296 297 300 300 299 299 298 298 298 299 299 300 301 302 302 302 303 305 309 314 317 319 321 321 322 322 322 321 321 321 321 321 320 321 321 320 319 318 317 316 315 315 317 317 317 317 317 316 315 313 312 313 313 314 315 314 312 310 310 311
320 319 313 310 311 312 310 310 308 305 306 309 308 305 305 304 305 306 306 305 304 303 301 297 297 300 300 297 297 298 298 297 297 296 296 296 296 295 296 299 300 299 299 298 298 298 298 298 299 300 302 302 303 303 304 306 311 316 318 320 321 321 321 321 320 320 320 320 321 320 321 321 320 319 319 318 317 316 316 317 318 318 317 316 316 315 314 312 313 313 314 315 315 314 312 310 309
316 313 308 308 310 311 311 310 308 306 305 307 308 308 307 305 306 309 308 305 303 300 298 296 295 298 299 297 297 298 297 297 297 296 296 295 295 295 295 298 300 300 299 298 298 298 298 298 299 299 301 302 303 303 303 304 308 313 316 318 320 321 320 321 320 320 320 321 321 321 320 320 319 319 318 318 317 317 317 317 318 318 317 315 315 314 313 312 312 313 313 314 314 314 312 310 309
315 309 307 310 311 310 310 309 308 308 307 307 310 310 308 307 308 309 307 304 301 297 295 294 293 296 298 297 297 298 297 297 296 296 296 295 295 294 294 297 299 299 299 298 298 298 298 298 298 299 300 301 302 302 303 304 306 310 314 316 319 321 320 320 321 320 320 320 321 321 320 319 319 319 318 317 316 316 317 316 317 317 316 314 313 313 312 312 312 312 312 312 312 312 312 311 309
315 309 307 309 310 309 309 310 309 308 307 307 309 309 308 309 308 306 305 302 298 295 293 293 293 294 296 296 297 298 297 296 296 295 295 295 295 294 294 295 297 298 298 298 298 297 297 297 297 298 299 301 302 302 302 303 305 307 310 314 316 319 320 320 320 320 320 320 320 320 320 319 318 318 317 316 316 316 316 316 316 316 315 313 312 312 313 313 313 312 311 311 310 310 311 312 310
310 308 307 307 309 310 309 310 309 308 308 307 308 311 308 305 303 302 304 299 295 294 293 292 292 293 295 296 296 296 295 296 296 295 295 295 295 294 294 295 296 297 297 297 297 297 297 297 297 297 298 300 301 301 301 301 303 306 308 311 314 316 319 320 320 320 320 320 320 320 319 319 318 317 317 316 315 315 315 315 315 315 315 313 312 312 312 313 313 313 312 311 310 310 310 311 310
305 308 308 307 309 312 312 311 309 309 310 306 304 306 302 300 301 301 301 297 293 292 292 292 292 293 294 294 294 294 294 295 295 295 295 295 294 294 294 294 295 296 296 296 297 297 297 297 297 297 298 300 301 300 300 300 302 304 306 309 312 314 316 319 320 320 320 320 320 319 319 318 318 317 317 316 316 315 315 315 315 315 314 313 312 312 312 312 313 313 313 312 311 310 310 310 310
301 307 309 306 307 309 308 307 309 309 307 302 300 301 298 297 300 300 297 293 292 292 291 292 292 293 293 293 293 293 293 294 294 294 294 294 294 294 293 293 294 295 295 296 296 296 296 297 296 297 297 299 300 300 299 299 300 302 305 307 310 312 314 316 319 320 320 320 320 320 319 318 317 317 317 316 315 315 314 314 314 313 313 312 312 312 312 312 312 312 312 311 311 311 310 310 309
304 308 309 307 306 306 302 300 304 305 303 299 297 298 297 297 300 301 297 292 292 292 292 292 292 292 292 292 292 293 293 294 293 293 293 294 294 294 293 293 294 294 295 295 295 296 296 296 296 296 297 299 299 299 298 298 299 300 302 305 308 310 312 314 317 319 320 319 319 319 319 318 318 317 317 316 315 315 314 314 313 312 312 312 312 312 312 312 312 311 311 311 311 311 310 309 309
305 307 308 307 306 302 296 296 298 300 299 297 295 297 299 299 301 300 296 292 292 292 292 293 293 292 292 292 292 293 293 293 293 292 293 293 294 294 293 293 293 293 294 294 295 295 295 296 296 296 297 298 299 299 298 298 298 298 300 302 305 309 311 313 315 318 319 319 318 319 319 318 318 317 317 316 316 315 314 313 313 313 312 312 312 312 311 312 311 311 310 310 310 310 310 309 309
303 307 308 307 308 302 296 296 298 297 296 296 296 299 301 301 300 296 292 292 292 292 293 293 292 292 292 292 292 293 293 292 292 292 292 293 294 294 293 293 293 293 293 294 294 294 294 295 296 296 297 298 299 299 298 297 297 298 299 300 303 306 309 312 313 315 318 319 318 318 318 318 318 318 317 316 316 315 314 313 313 313 312 311 311 310 309 309 309 310 309 308 309 309 308 309 309
301 303 302 302 307 304 299 298 298 296 296 297 297 299 299 298 296 293 291 292 292 292 293 292 291 292 291 292 292 292 292 291 291 292 292 293 293 294 293 293 293 292 293 293 293 294 294 294 295 295 296 297 298 298 298 297 297 297 298 299 301 303 305 309 312 313 316 319 319 318 319 318 318 317 317 317 316 315 314 313 313 313 312 311 310 309 309 309 309 309 309 307 307 307 307 307 307
302 298 297 300 304 302 300 301 299 296 295 296 296 295 294 293 294 293 291 292 292 291 292 291 291 291 291 292 292 291 291 291 291 291 291 292 293 293 294 293 293 292 292 293 293 293 293 294 294 295 296 297 298 298 298 297 297 297 297 298 299 300 301 305 309 311 313 317 319 319 318 319 318 317 317 317 316 315 314 313 312 312 312 311 310 309 309 310 309 309 309 308 307 306 306 306 306
301 297 296 298 299 299 299 298 298 296 294 294 293 293 292 292 293 293 291 291 291 291 291 291 291 291 291 291 291 290 290 290 291 291 291 292 293 293 293 293 293 292 292 292 292 293 293 293 294 294 295 296 297 298 298 297 297 297 297 298 298 299 299 300 304 307 310 314 318 319 318 318 318 318 318 317 316 315 314 314 312 312 311 310 310 310 310 310 309 307 307 307 306 305 305 305 306
298 298 297 296 296 297 297 295 294 294 293 293 293 292 292 292 292 291 291 291 291 291 291 291 291 291 290 290 290 290 290 290 291 291 291 292 292 293 293 293 293 292 292 292 292 292 292 293 293 293 294 296 296 297 298 297 296 296 297 297 298 298 298 298 300 303 306 311 316 318 318 318 318 318 318 317 315 315 314 314 312 311 310 310 310 311 310 309 308 307 305 305 305 304 304 304 304
297 297 297 297 298 295 294 294 294 294 293 293 293 292 292 292 291 291 291 291 291 291 290 290 290 290 290 289 289 289 290 290 290 291 291 291 292 292 292 292 292 291 291 291 291 292 292 292 292 293 294 295 296 297 297 297 297 296 296 297 297 298 298 298 298 299 302 308 314 317 318 318 318 318 318 317 315 315 314 313 313 311 310 309 309 310 309 308 308 308 306 305 304 304 304 303 302
296 295 294 295 296 294 293 293 293 294 294 293 292 292 292 292 291 291 291 291 291 290 291 290 290 289 289 289 289 289 290 290 290 290 291 291 291 291 291 291 291 291 291 291 291 291 291 292 292 293 293 294 295 296 297 297 297 296 296 296 297 297 297 297 297 297 299 303 311 316 317 317 317 317 317 316 315 315 314 313 313 312 310 309 309 309 309 308 307 307 306 305 304 304 304 302 301
295 294 294 294 295 295 294 293 292 293 293 293 292 292 291 291 291 292 291 291 291 290 290 290 289 289 289 289 289 289 290 290 290 290 290 290 291 290 291 291 291 291 291 290 291 291 291 291 292 292 293 294 295 295 296 296 297 296 296 296 296 297 297 297 296 296 297 300 306 314 317 317 317 317 317 316 315 314 314 313 313 312 310 309 308 308 308 308 307 305 304 304 303 303 302 301 300
Wind_Speed
6 7 4 1 2 4 2 3 1 2 2 1 1 0 2 1 0 1 3 2 1 2 3 1 4 4 2 3 4 4 3 5 5 3 3 3 3 6 11 16 13 10 14 19 22 21 20 20 19 20 19 18 17 16 16 16 16 16 15 15 17 15 14 14 12 11 11 12 13 14 14 14 15 14 13 14 13 12 12 13 14 14 14 15 17 19 19 19 20 20 21 25 28 31 27 28 29
6 5 2 3 4 3 1 2 2 2 3 2 2 2 2 1 1 3 5 4 3 1 1 1 2 1 1 2 2 1 4 6 6 3 4 4 4 8 14 17 15 11 13 18 20 22 23 22 21 20 19 18 17 17 17 17 16 16 16 16 17 16 14 14 13 11 12 13 13 14 14 15 16 15 14 14 14 13 13 13 13 14 15 16 17 19 20 20 21 20 23 27 29 32 30 30 30
6 3 3 5 3 3 1 2 1 1 2 2 3 2 1 0 4 6 6 6 4 1 1 2 1 2 1 1 1 2 5 4 5 3 4 7 5 8 14 16 16 13 14 17 18 21 23 23 22 21 19 18 18 18 18 18 17 17 17 16 17 17 16 15 13 11 13 13 14 15 15 17 17 15 15 14 14 14 15 15 13 14 16 17 18 20 21 21 21 21 26 30 30 32 31 30 30
6 4 4 4 2 3 3 3 1 2 2 2 3 3 2 3 5 6 6 6 4 2 1 2 1 2 4 5 2 2 5 3 6 6 3 7 8 10 13 15 16 15 15 17 18 19 21 23 22 22 19 18 18 18 18 18 18 17 17 17 17 18 17 16 15 13 13 14 14 15 15 17 17 15 15 14 14 14 15 15 14 15 17 19 18 19 21 22 22 23 28 31 32 32 31 29 29
6 7 4 3 2 1 2 2 2 1 2 2 2 4 3 5 5 6 6 6 4 3 2 3 2 2 1 4 2 1 5 3 5 10 6 6 9 10 14 17 17 16 16 17 19 19 20 21 22 23 21 19 18 18 18 18 18 17 17 18 18 19 17 16 16 14 14 15 14 14 15 17 16 16 16 14 14 14 16 16 16 17 17 19 19 20 22 24 23 25 30 30 32 33 30 28 28
5 8 6 4 3 1 2 1 0 2 3 4 2 4 4 4 4 6 7 7 3 4 2 2 2 1 1 3 3 4 5 1 0 9 11 8 9 11 14 19 19 17 17 17 18 19 20 20 21 23 22 21 20 19 19 19 18 18 19 19 19 19 18 16 16 15 15 16 15 16 17 17 15 15 16 14 14 15 16 16 16 17 18 20 21 22 24 25 25 28 32 30 32 32 29 28 28
4 3 4 5 2 1 3 1 2 3 3 4 3 4 6 4 3 4 7 5 1 2 1 2 1 1 3 2 2 8 11 9 4 7 10 9 9 11 15 19 21 19 18 18 18 19 19 20 21 22 23 23 22 21 20 20 20 20 20 20 20 19 18 17 16 17 18 17 16 18 18 16 15 15 15 13 14 15 16 16 16 16 18 20 21 23 25 24 25 30 32 30 31 32 30 30 29
4 1 0 3 1 3 3 1 2 3 3 3 3 5 7 5 2 2 4 2 2 2 0 3 1 1 4 1 2 6 11 18 17 17 15 12 10 11 15 19 21 21 20 19 18 19 19 20 22 23 24 24 24 23 22 21 21 21 20 20 20 19 18 16 18 20 21 19 18 19 17 15 15 15 15 14 14 15 16 17 17 17 18 20 22 24 24 23 25 30 31 31 33 34 33 32 30
5 3 1 2 1 2 1 1 3 2 3 3 3 6 7 5 3 3 3 3 4 2 2 4 2 3 4 1 5 4 6 17 20 22 22 19 15 13 16 19 21 22 22 20 19 19 19 21 23 24 25 24 24 25 24 22 21 21 21 21 21 20 18 17 20 22 22 20 19 19 17 16 15 15 16 15 14 15 16 17 17 17 18 20 22 25 24 23 25 29 32 35 37 38 36 34 31
4 4 2 2 2 2 3 2 2 2 4 3 4 8 7 3 3 4 4 4 3 2 3 1 2 6 6 5 7 4 5 11 14 19 21 21 18 15 17 19 21 23 22 21 20 20 20 21 22 24 25 25 24 24 25 23 21 21 21 22 21 20 18 19 23 23 21 20 19 19 18 17 16 16 16 15 15 15 16 17 17 16 17 21 23 26 25 24 27 28 34 37 38 38 35 32 30
3 3 2 3 3 2 2 3 3 3 5 4 5 7 6 3 3 3 4 4 4 3 4 1 1 6 4 5 5 4 6 9 13 16 16 17 19 18 18 20 21 23 23 22 21 20 21 21 22 23 25 25 23 23 24 24 22 21 22 22 22 21 19 21 24 22 21 20 19 19 19 18 16 16 15 15 15 15 16 17 17 16 16 20 24 26 25 27 29 30 34 36 36 36 33 29 28
2 2 3 3 1 1 2 3 5 5 5 4 4 3 2 5 3 4 4 4 3 4 5 4 2 2 2 4 3 6 9 11 14 15 15 14 16 18 18 20 22 23 24 23 22 22 22 22 22 23 24 25 24 23 24 26 23 21 22 22 21 21 20 22 24 23 22 20 19 18 20 20 17 16 15 15 15 16 16 17 17 16 17 19 24 26 24 27 30 31 34 34 34 33 33 31 29
3 1 3 2 2 2 2 2 4 5 5 3 3 2 2 5 4 6 4 3 3 3 6 8 3 2 3 4 3 7 9 9 10 11 13 13 15 18 20 21 22 23 24 23 23 23 23 23 23 23 24 25 24 24 25 27 26 22 21 23 22 22 22 24 25 24 21 20 19 18 19 20 18 17 15 15 16 16 16 16 15 15 16 17 21 23 23 27 31 33 34 33 32 34 35 34 31
2 2 3 2 1 1 2 2 2 2 4 4 3 1 2 3 5 5 2 5 7 5 4 5 5 1 3 3 4 5 4 6 9 8 10 13 15 18 21 22 23 24 24 24 25 25 25 24 24 25 25 26 26 26 27 28 28 24 22 24 24 23 23 24 25 24 22 20 19 19 20 20 19 18 16 16 16 16 15 14 14 14 15 17 19 21 24 28 33 34 35 34 33 35 35 34 34
2 2 3 3 1 1 2 2 1 1 4 4 3 1 1 5 4 2 4 6 8 4 2 1 5 2 2 2 6 4 2 8 10 9 9 12 15 18 21 22 24 24 24 25 25 26 25 25 25 25 25 27 27 27 28 29 29 27 24 24 25 24 23 24 24 24 22 20 19 19 20 19 19 19 17 17 17 15 15 14 14 12 13 17 19 23 27 29 35 37 35 36 36 36 37 36 37
2 3 4 2 1 1 2 2 1 0 4 4 2 1 1 6 3 2 4 4 6 1 1 3 4 3 3 5 8 5 5 11 12 11 10 12 15 18 20 21 23 24 25 26 26 26 26 26 26 26 26 27 28 28 29 29 30 29 25 25 25 25 24 24 24 23 20 19 19 19 20 20 19 19 19 18 17 16 15 14 12 10 12 16 19 26 32 35 39 40 38 39 39 38 39 38 36
2 3 4 1 1 2 3 4 3 2 5 4 3 2 3 9 2 3 1 2 6 4 2 4 3 4 6 8 8 10 13 15 14 13 11 13 14 16 19 21 23 25 27 28 28 27 26 27 27 26 25 26 28 29 29 28 28 28 27 26 25 25 25 24 24 21 20 20 20 19 20 21 20 20 20 19 18 16 16 14 11 10 11 12 13 17 32 43 43 42 41 41 42 40 40 37 34
3 3 3 0 2 3 5 6 5 2 5 5 4 1 3 10 4 1 3 1 5 6 7 5 5 9 12 16 17 19 21 19 16 14 12 13 13 14 19 22 24 27 28 29 30 28 28 28 27 26 24 26 29 29 28 28 28 27 28 27 25 25 25 23 22 21 21 21 21 21 21 21 21 20 20 19 18 18 16 14 12 9 8 9 8 1 15 41 47 46 44 41 43 41 38 35 31
3 3 1 2 5 5 5 6 5 2 5 8 8 1 2 9 5 2 4 6 5 8 11 3 5 11 10 15 20 22 22 20 18 14 13 14 15 16 19 21 23 28 29 31 32 31 31 29 27 27 25 26 28 29 29 30 29 27 28 27 26 26 25 23 22 21 21 22 21 22 22 21 20 20 19 19 19 19 15 14 14 11 11 10 10 9 13 24 32 40 44 41 40 37 34 33 31
1 3 0 5 5 4 4 5 5 5 4 8 10 3 2 10 5 1 3 8 8 8 10 4 7 11 8 8 10 13 14 16 16 14 15 16 18 20 21 23 24 30 32 32 33 33 33 31 29 28 26 26 28 29 30 32 31 29 28 27 27 28 26 25 23 23 22 22 22 22 22 21 20 20 18 19 21 19 15 14 15 15 14 11 12 12 19 23 23 28 35 36 35 35 34 33 33
1 3 3 5 3 2 5 6 6 5 2 4 8 6 8 9 2 1 1 7 11 7 6 5 7 11 11 11 8 8 8 10 12 13 14 16 20 22 25 28 28 30 29 28 31 33 33 33 32 28 26 28 29 30 31 33 33 31 29 28 28 29 28 27 25 24 24 23 23 22 22 21 21 20 19 20 22 20 17 16 16 18 16 13 15 17 19 22 23 22 25 27 29 29 32 33 33
1 3 5 4 3 3 4 5 5 3 2 4 7 9 9 6 2 3 3 2 8 8 6 5 7 11 11 11 10 8 7 9 10 11 13 16 20 23 28 30 30 30 27 28 32 34 34 34 33 29 27 31 31 31 33 34 34 33 31 30 29 29 29 29 28 26 25 24 24 23 22 22 21 21 20 21 23 22 21 19 19 19 19 17 18 20 20 21 24 24 23 23 24 24 27 32 31
1 4 4 3 4 5 3 4 5 4 1 5 6 7 5 6 8 3 7 8 11 11 11 8 9 11 10 10 8 8 9 10 10 12 14 16 20 24 28 28 30 30 27 32 35 33 33 34 34 29 28 32 32 32 33 33 36 34 32 32 31 31 30 30 30 29 27 26 25 24 24 23 22 22 22 23 25 24 23 23 22 22 21 20 19 20 22 22 24 25 23 23 25 25 26 29 29
1 3 6 5 5 7 5 1 3 3 4 9 4 6 8 8 8 2 4 11 13 14 12 8 8 10 8 7 7 7 10 11 13 18 20 19 22 25 27 28 30 26 26 35 36 32 33 34 33 29 29 33 32 32 33 35 38 36 33 33 33 33 32 32 32 30 29 27 26 26 25 24 23 23 24 24 26 26 24 24 24 25 23 21 20 21 23 25 26 26 25 26 29 30 29 29 29
3 5 6 5 4 6 4 4 5 5 7 7 2 5 12 11 4 4 8 11 11 11 9 7 7 9 8 7 9 7 8 11 14 20 23 22 23 24 29 30 27 24 28 35 33 33 36 34 31 29 30 34 34 33 33 35 38 37 35 36 36 35 34 33 33 31 31 29 28 27 26 25 24 24 24 25 27 28 27 26 25 25 23 21 21 22 25 27 28 29 29 30 32 33 33 32 31
4 5 5 6 12 9 3 3 5 5 4 4 3 5 13 10 4 5 10 10 7 5 6 7 8 10 10 9 10 8 9 12 14 17 22 28 26 22 28 29 24 26 31 32 30 34 34 29 30 30 31 35 34 34 35 36 37 37 38 39 38 36 36 35 34 33 32 31 30 29 28 26 25 25 24 25 29 30 29 28 26 23 22 21 22 24 25 27 28 30 32 33 33 32 33 33 32
3 4 7 8 14 12 3 2 3 4 3 7 7 6 12 7 4 4 7 6 5 7 7 8 8 9 10 9 9 9 9 13 15 18 22 28 28 24 28 30 26 28 29 30 32 33 30 28 31 32 32 35 35 35 37 37 36 38 39 39 39 38 38 37 35 34 34 33 32 31 30 27 25 25 25 27 30 31 30 29 27 23 22 23 24 25 25 25 27 29 31 33 33 32 32 33 32
1 3 8 9 12 10 2 2 2 4 1 8 8 6 8 5 1 6 7 5 6 9 9 8 7 7 8 9 9 8 8 13 19 19 17 19 23 24 27 29 29 29 28 30 32 29 28 30 32 32 32 34 35 36 37 37 38 39 38 38 39 40 38 38 37 36 36 35 34 33 31 28 27 27 27 29 32 32 31 30 27 24 24 24 25 25 25 26 27 29 31 32 32 32 32 32 33
2 2 4 8 11 10 4 3 2 5 1 5 5 2 4 2 5 8 6 5 7 9 10 8 6 6 7 8 7 7 8 14 18 16 16 19 23 25 27 31 31 28 28 29 29 27 28 31 30 30 31 33 34 36 37 37 38 39 41 40 40 40 40 39 39 39 38 37 35 34 32 30 29 29 29 30 33 33 32 31 29 27 27 27 26 25 25 27 29 31 32 32 33 34 32 31 31
2 2 1 4 9 8 6 4 4 7 3 1 3 3 3 6 9 9 4 7 11 13 13 11 8 6 6 6 5 6 8 10 11 13 19 22 26 28 30 35 36 32 31 30 27 27 28 28 28 29 29 32 35 36 37 37 37 37 39 41 40 40 42 42 41 40 39 38 37 35 33 32 31 30 31 31 33 33 32 32 31 31 30 29 29 27 27 29 31 33 33 34 34 35 33 31 29
2 2 1 3 4 6 9 7 6 8 4 6 9 5 5 7 9 7 2 7 10 14 17 15 12 10 7 7 7 7 7 7 10 15 21 25 29 32 33 37 40 39 37 35 31 28 26 26 26 27 28 31 35 36 36 37 39 38 37 38 40 42 43 43 43 42 41 39 38 36 34 33 33 32 32 32 34 34 34 33 33 33 33 31 31 30 29 31 33 34 35 36 35 34 34 31 29
2 3 3 3 2 6 11 7 3 5 5 7 10 6 8 11 10 4 3 6 6 10 15 15 13 11 10 9 8 8 7 9 14 20 26 29 32 34 35 39 42 43 41 39 37 33 29 26 23 25 28 30 33 36 36 36 37 38 38 38 39 41 43 43 44 43 42 41 39 37 37 35 34 34 33 32 33 35 35 35 34 34 34 34 33 31 31 32 33 34 35 36 35 34 33 30 30
3 4 4 5 4 7 9 4 3 5 6 6 5 3 9 13 12 9 9 7 5 6 10 14 12 10 9 8 7 7 7 10 14 21 28 31 34 36 36 39 42 44 43 42 40 36 33 30 25 24 27 30 33 35 35 35 35 35 37 38 39 40 41 42 44 43 42 42 41 39 39 38 37 37 36 34 33 35 36 35 36 36 36 36 35 32 31 32 33 34 34 35 35 34 34 31 30
4 3 3 5 4 6 8 5 2 7 7 7 6 5 11 15 14 15 12 9 11 12 12 11 9 9 7 7 7 7 8 11 11 17 27 30 32 36 37 38 41 44 44 44 43 38 35 32 28 25 26 28 32 34 33 34 35 36 37 38 39 39 41 41 42 42 42 42 41 41 41 40 40 39 38 36 35 36 37 37 37 38 38 38 38 35 33 32 32 34 35 35 36 36 35 32 30
4 4 4 5 4 4 6 8 6 8 5 6 10 10 15 19 12 12 11 8 10 14 12 9 8 8 7 8 8 8 10 12 12 17 26 29 31 35 36 37 39 41 42 44 46 42 37 34 30 26 25 27 30 33 33 33 33 34 36 38 39 39 40 41 41 40 42 42 41 41 41 41 41 40 39 37 36 37 37 38 38 39 40 38 37 35 34 35 33 33 34 35 36 36 36 35 32
6 6 4 5 7 5 5 7 5 9 9 8 10 14 21 23 15 13 14 10 8 10 8 8 7 7 7 8 8 9 11 11 13 19 26 29 31 33 33 34 36 38 39 42 45 45 42 38 33 29 28 27 29 31 31 31 32 31 31 32 37 40 40 41 42 42 42 42 41 42 42 42 42 41 39 38 38 38 38 39 38 39 40 39 36 35 36 37 36 35 33 35 36 34 35 37 36
4 5 3 5 9 8 5 4 4 7 8 10 12 18 25 23 16 15 15 12 9 8 7 7 6 7 7 9 9 10 11 10 14 21 28 32 33 34 32 32 35 37 39 41 42 44 44 40 35 32 32 28 26 29 30 29 31 33 32 30 31 36 41 43 43 43 43 42 42 43 43 42 42 41 40 39 38 38 38 37 38 38 40 40 38 37 37 36 37 37 34 34 37 36 34 36 38
3 4 5 5 6 9 9 3 3 7 8 11 14 19 28 22 15 16 12 10 8 6 8 6 7 8 7 9 11 10 9 9 13 19 26 31 34 36 34 32 33 34 36 38 38 40 41 40 37 35 34 31 28 28 30 31 31 32 33 34 34 32 36 42 43 43 43 43 42 43 43 42 41 41 41 41 39 39 38 37 38 40 41 41 38 39 39 36 36 37 36 33 35 38 36 37 41
4 3 4 6 4 8 9 3 3 5 4 11 14 15 26 18 12 15 7 5 4 8 8 6 8 9 9 10 10 10 10 12 14 16 20 25 29 32 31 31 33 33 34 35 36 38 38 38 39 38 36 33 31 29 30 32 32 34 33 35 38 35 33 37 41 44 44 43 43 43 44 43 42 42 43 42 41 39 39 38 38 40 42 41 40 40 40 40 37 38 40 36 33 35 34 38 41
3 4 3 5 5 6 7 9 13 8 3 7 10 10 18 12 7 12 4 8 6 9 9 9 9 9 10 8 8 10 12 14 15 15 16 20 25 28 27 27 30 33 34 36 37 37 37 38 39 39 38 36 34 31 31 33 33 36 38 37 37 39 40 37 34 37 41 43 43 43 43 44 44 44 45 45 44 42 41 39 37 39 42 43 42 41 41 42 41 39 41 40 36 31 29 33 34
3 3 2 4 7 6 7 10 16 15 2 3 5 8 13 9 7 12 6 10 10 9 11 14 11 8 7 7 9 10 11 12 13 15 15 17 20 25 27 26 26 29 31 34 36 35 35 38 40 40 38 37 36 34 32 32 33 33 36 37 35 34 37 37 33 32 35 38 39 39 42 46 47 46 47 48 47 45 43 42 40 40 42 44 43 43 44 44 45 44 43 43 42 35 31 33 30
4 2 0 4 7 7 9 11 12 13 7 3 6 9 13 9 9 12 7 9 9 8 12 15 12 9 8 8 10 10 11 11 11 12 13 14 16 21 25 25 23 26 29 32 35 36 36 37 39 40 39 38 37 37 35 32 31 31 31 31 30 27 26 30 34 35 35 38 40 41 44 47 47 46 46 48 47 45 44 44 44 43 43 44 45 45 45 46 47 47 46 45 45 42 38 34 30
3 2 1 2 5 7 10 12 8 7 10 2 7 3 12 11 6 7 4 9 8 8 12 13 12 8 6 6 7 8 10 11 12 13 13 13 15 17 21 23 22 25 29 32 33 36 37 37 38 39 38 38 38 38 37 33 30 29 29 30 31 30 26 25 32 37 39 43 45 46 46 45 46 45 45 46 45 44 44 43 44 44 44 44 45 45 45 46 48 48 47 47 44 42 40 34 31
2 1 2 4 6 9 9 9 6 5 9 6 4 5 8 8 3 3 5 7 8 10 12 12 12 8 5 4 5 7 10 11 11 13 13 13 14 16 20 24 25 28 32 33 33 34 35 37 38 39 39 38 37 39 39 35 31 29 28 30 33 35 34 30 31 36 40 44 45 45 45 44 45 46 46 45 44 43 43 42 43 44 44 44 45 46 46 46 47 47 46 46 43 41 41 38 35
5 3 2 3 5 8 6 6 7 4 5 5 2 4 3 6 3 5 7 6 8 11 12 12 13 10 7 6 7 9 11 11 11 13 14 14 16 19 22 25 27 30 33 33 34 34 35 37 38 39 40 40 38 39 40 38 33 30 28 29 31 34 36 35 32 32 34 39 41 42 44 44 44 44 45 46 44 43 44 43 43 44 43 43 44 45 46 46 47 46 44 43 43 43 43 42 39
6 4 3 3 4 6 4 5 6 4 4 3 3 1 1 8 6 5 5 6 7 9 9 10 12 10 8 9 11 13 14 14 15 16 16 19 21 21 23 24 25 28 31 33 35 35 35 35 37 38 38 39 39 39 39 40 37 32 28 27 31 33 33 34 33 31 32 35 36 38 41 42 43 43 44 45 45 44 44 44 44 44 44 44 45 44 44 46 46 47 46 44 43 43 42 41 42
4 4 5 5 4 3 2 2 2 3 2 3 3 3 3 7 5 3 3 5 5 6 8 12 14 13 11 12 15 16 16 15 16 17 18 22 25 23 23 22 22 25 29 32 35 36 35 33 34 36 37 37 38 39 39 41 39 35 30 28 30 34 34 32 33 33 35 37 38 38 39 40 42 44 44 44 45 44 44 45 45 46 46 45 45 44 44 46 46 46 47 46 45 43 42 40 40
5 5 4 5 5 3 1 2 2 2 4 3 1 6 5 7 3 5 4 5 7 7 10 13 14 13 12 15 18 17 16 15 16 17 17 19 19 20 21 21 21 24 26 30 32 34 34 32 31 33 35 37 37 38 39 40 39 37 34 31 31 34 35 33 34 35 36 38 40 40 40 40 41 44 44 43 44 44 44 45 46 45 46 46 46 45 45 46 47 47 46 45 44 42 42 41 39
7 4 3 4 5 4 3 3 1 4 7 2 3 8 5 9 5 4 5 7 9 7 10 13 14 16 18 21 22 19 17 17 17 17 17 16 14 14 17 20 22 22 23 27 30 31 32 32 31 30 31 34 36 37 38 38 39 38 36 34 32 33 34 35 36 35 36 38 40 40 40 41 42 43 44 43 44 45 45 45 46 46 46 47 48 47 47 47 47 47 46 45 45 44 43 42 41
4 2 2 3 2 5 6 5 3 4 9 8 6 4 5 6 2 3 5 3 6 10 14 15 16 20 22 22 20 18 17 18 17 17 17 15 14 15 17 20 21 21 22 25 28 30 30 31 32 30 30 31 33 34 36 38 38 39 39 36 34 33 33 35 36 33 32 36 38 40 42 42 43 44 46 46 46 47 48 47 48 49 48 48 48 47 47 48 48 48 47 46 47 46 45 43 42
1 2 3 3 2 1 4 4 3 5 12 15 10 4 3 2 1 5 3 2 9 16 16 13 14 17 18 17 16 16 16 16 16 17 18 17 18 20 21 22 22 22 23 24 26 29 30 30 31 30 30 30 30 32 34 36 38 40 41 38 36 34 33 35 36 35 31 34 37 39 43 44 44 46 48 49 48 48 49 48 49 51 49 47 47 45 44 44 46 47 46 45 45 45 44 43 42
2 2 3 1 3 4 3 3 3 4 10 12 6 4 5 3 1 1 6 10 15 16 11 10 14 16 15 14 13 14 15 15 15 16 18 18 21 24 24 24 25 24 24 25 26 28 30 31 32 31 30 30 29 29 31 33 36 39 40 39 39 37 36 35 36 36 34 36 41 40 42 45 46 45 45 48 49 48 48 48 49 51 50 48 48 45 43 44 45 45 44 41 42 43 43 42 42
0 2 1 4 3 5 1 4 3 2 6 6 5 8 8 5 5 7 12 16 17 14 10 12 17 17 15 14 13 14 14 15 16 16 17 18 20 24 25 26 27 27 26 27 28 29 30 32 33 33 32 30 29 29 29 30 33 37 39 39 39 39 38 37 35 36 37 35 42 44 42 45 46 45 44 46 49 49 48 47 48 50 51 49 49 47 46 47 46 44 44 43 42 43 43 43 42
3 1 3 3 0 3 4 1 3 3 5 5 6 13 13 7 4 7 14 17 16 13 12 15 18 16 15 15 15 16 16 16 17 17 18 18 18 23 26 27 30 31 30 29 30 31 30 31 34 34 33 31 31 30 29 29 30 33 36 38 39 39 39 39 36 35 39 35 38 45 43 43 45 47 46 45 48 51 50 48 48 49 50 50 50 49 47 47 45 43 43 45 44 44 43 43 43
4 3 1 2 1 1 1 2 1 4 5 4 8 14 11 4 2 8 15 17 15 14 15 17 19 17 16 16 16 17 17 16 17 17 18 18 18 24 28 29 31 34 34 33 32 32 31 32 35 36 35 32 31 30 29 28 28 29 32 36 36 37 38 41 41 37 38 38 36 43 44 45 47 48 49 47 46 48 49 49 47 46 47 49 52 52 49 47 46 43 41 42 42 42 42 41 41
3 2 3 2 2 2 1 1 2 3 4 3 7 12 7 1 3 12 16 15 13 13 16 17 18 17 16 16 16 16 16 15 15 16 19 19 21 27 32 32 32 34 35 35 33 31 31 33 35 36 36 34 30 29 29 28 27 28 31 34 35 36 37 39 42 42 41 40 36 39 42 44 48 50 52 51 47 46 49 50 48 45 46 48 51 52 51 48 47 45 43 42 41 41 41 39 39
1 2 2 1 1 1 0 1 2 2 1 1 4 12 8 2 6 12 14 13 11 13 16 17 17 17 17 17 17 16 15 15 16 17 18 20 22 28 34 35 35 34 34 35 33 31 32 34 35 36 36 34 31 29 28 28 27 27 29 33 34 35 36 36 39 42 42 42 36 35 40 39 43 48 50 51 49 48 50 51 49 46 46 48 49 51 51 50 47 46 44 43 42 42 42 41 38
5 2 2 2 1 1 2 3 2 3 2 3 3 12 11 2 3 9 11 11 12 13 16 17 17 19 18 17 18 18 16 16 18 18 19 20 20 26 32 35 35 34 32 34 34 33 34 35 36 36 35 33 32 30 29 28 28 26 27 31 33 33 34 35 36 38 40 43 40 34 43 43 41 46 49 51 52 49 48 50 50 49 47 47 48 50 51 51 48 46 44 43 43 44 43 41 39
Wind_Direction
352 347 343 13 132 141 80 53 86 330 64 1 293 240 279 249 264 252 258 243 235 239 202 182 146 150 132 159 195 205 199 186 183 182 231 240 243 225 187 185 193 198 195 196 201 202 205 207 204 202 205 208 209 209 210 214 218 225 229 228 228 234 237 239 239 235 239 239 243 245 245 240 239 243 239 240 239 240 243 244 241 231 227 224 227 222 216 218 219 222 213 199 181 168 169 170 166
357 354 19 113 110 126 216 64 101 335 34 337 286 179 278 320 259 237 226 211 204 233 271 195 172 251 47 110 161 268 244 214 208 213 262 285 279 213 180 183 195 197 192 193 200 205 207 208 206 202 207 210 210 211 213 215 220 228 232 232 230 232 235 239 238 235 239 239 243 244 243 242 240 238 234 237 237 240 241 241 244 240 233 224 226 222 215 217 220 221 202 188 177 167 169 170 165
9 17 123 130 89 44 79 47 63 8 19 318 288 228 259 288 228 239 232 227 228 271 296 184 227 262 119 278 203 214 261 251 235 244 282 271 271 220 190 188 197 198 195 196 201 206 209 209 206 202 205 210 211 213 215 217 221 228 231 233 231 230 233 239 239 236 241 242 245 244 243 241 237 234 233 236 237 240 242 238 240 245 243 229 224 222 215 214 220 215 191 179 175 170 170 169 166
40 64 137 146 67 27 65 37 99 122 345 285 290 283 226 221 242 263 259 255 264 284 263 149 244 221 174 238 221 229 258 269 228 203 262 253 243 237 210 200 199 201 202 202 204 206 211 210 210 207 204 209 214 217 217 219 223 228 231 233 234 231 232 236 236 236 243 246 247 247 247 244 239 239 237 235 237 239 243 241 241 244 246 236 225 223 214 212 219 204 184 178 174 173 172 167 165
74 81 125 150 74 48 91 58 100 87 292 197 285 291 240 231 259 287 283 283 274 228 198 138 249 282 184 228 181 231 239 269 240 204 225 261 249 238 217 211 207 209 213 210 209 208 210 210 212 214 210 208 214 221 222 224 225 228 230 232 235 233 234 236 236 237 245 249 250 250 248 248 248 252 249 241 239 237 242 245 247 243 243 241 228 221 212 213 219 195 182 180 173 173 173 165 165
105 90 80 86 84 141 113 39 4 294 251 172 238 271 256 242 253 295 300 299 269 204 202 159 240 338 290 249 200 221 222 288 302 205 224 252 253 234 218 216 215 218 219 218 218 213 211 210 212 216 215 212 213 220 225 228 227 228 230 231 233 233 235 237 237 240 246 248 249 249 246 244 246 252 255 252 246 242 244 247 252 247 241 241 231 219 210 215 218 193 184 183 175 173 169 164 167
123 110 53 69 59 45 103 165 218 258 244 175 197 260 276 264 228 312 319 324 338 208 231 247 293 26 264 268 254 242 229 227 230 235 234 242 248 232 221 215 216 222 221 222 225 221 215 212 214 216 217 218 216 219 225 229 229 229 231 232 232 233 235 237 238 240 242 243 246 248 248 246 241 240 245 249 249 248 248 249 253 253 243 240 233 218 211 218 213 193 186 185 178 170 166 166 164
80 117 17 81 38 23 91 199 235 216 245 218 213 242 270 273 214 297 307 320 296 272 279 270 6 268 265 106 251 258 235 234 242 253 249 250 251 232 223 216 217 221 222 225 228 228 221 216 217 218 219 221 220 220 225 229 231 231 232 231 231 231 232 235 238 240 240 242 246 249 250 248 243 240 243 242 244 250 252 252 252 255 247 239 233 219 214 218 205 190 185 182 175 167 163 162 156
50 40 107 71 61 12 50 300 280 223 252 259 251 252 266 269 205 225 259 272 273 276 254 250 136 230 289 24 248 290 265 246 246 254 253 251 249 236 227 218 220 221 223 225 228 231 228 223 220 221 222 222 221 221 225 229 233 233 232 230 229 227 227 232 236 241 241 243 248 250 247 243 242 243 246 245 244 247 252 255 253 256 248 237 232 220 218 214 198 187 181 176 169 161 158 155 151
39 26 114 69 60 353 342 297 278 254 256 247 260 265 268 246 188 205 222 267 264 257 269 216 143 238 284 300 266 284 269 257 251 257 259 252 245 238 229 221 222 222 224 226 229 232 232 231 225 224 225 225 223 222 225 228 232 233 231 229 229 226 224 231 235 240 243 245 252 251 245 238 239 240 243 246 247 245 248 256 257 258 247 235 229 222 221 208 191 185 178 173 169 162 158 156 156
43 358 91 80 48 348 313 278 283 276 276 289 272 259 254 198 178 223 206 265 263 240 266 103 185 237 266 284 264 262 264 268 259 266 274 259 243 237 231 224 222 220 223 227 231 233 234 236 232 229 227 227 225 221 222 224 230 233 231 228 227 224 222 232 235 239 242 246 250 247 244 237 238 240 240 244 247 247 248 255 257 260 250 235 227 222 223 206 185 179 177 171 168 163 158 158 159
82 335 61 92 156 241 238 263 285 285 297 309 277 253 206 154 160 255 224 248 266 269 253 191 199 201 259 277 254 281 289 286 277 277 279 264 243 234 231 226 223 220 221 226 231 234 236 236 236 235 232 230 226 223 221 221 228 232 229 225 225 222 219 230 234 236 239 243 245 243 241 235 236 238 239 244 244 247 248 251 254 259 252 237 229 223 217 206 184 174 176 172 168 164 159 158 157
118 144 86 102 178 183 202 244 280 306 313 268 251 264 149 150 194 242 224 239 240 287 261 208 172 94 254 269 280 296 303 308 307 288 268 260 242 230 228 226 224 223 223 227 230 233 236 237 237 237 235 232 228 225 223 221 225 229 229 224 222 220 219 228 232 234 238 241 243 241 235 230 233 233 235 243 243 245 246 249 249 254 252 237 233 224 208 200 187 177 174 166 164 161 156 156 153
147 152 111 112 112 150 185 257 311 340 295 251 248 254 160 201 219 215 193 275 248 213 248 202 146 130 252 280 299 288 298 334 337 309 265 251 240 229 227 226 225 226 227 230 231 233 235 236 236 236 235 232 229 227 225 223 224 228 230 224 220 220 221 227 231 236 239 240 242 239 232 228 228 227 232 240 244 241 239 247 245 251 256 238 233 221 206 198 186 177 171 161 160 157 152 152 150
137 133 86 113 61 341 203 248 313 104 260 247 240 189 193 248 211 183 203 252 265 204 231 204 145 202 210 217 276 258 286 333 338 316 274 248 240 232 228 227 228 228 232 235 235 235 234 234 235 236 235 231 230 229 228 225 223 227 229 223 217 218 223 229 233 236 237 238 240 237 231 227 224 225 229 237 243 233 228 242 244 253 256 238 228 211 201 197 185 174 166 162 160 157 152 149 148
119 113 64 102 133 314 219 213 149 322 257 228 245 117 303 271 186 231 231 212 285 289 175 214 172 241 208 212 270 297 312 317 320 308 281 251 242 235 232 231 232 234 235 239 239 238 235 234 233 235 235 230 229 231 232 229 224 225 224 219 215 215 222 230 234 235 234 234 235 232 227 224 222 225 227 234 238 225 222 233 236 239 240 233 220 206 198 192 184 174 167 165 161 157 153 149 147
62 81 73 90 176 206 206 195 190 293 282 263 287 66 335 300 221 232 293 139 270 278 237 230 199 240 229 238 283 310 303 304 303 297 278 253 244 239 240 237 237 239 238 239 239 239 237 234 233 232 232 228 228 231 232 230 224 222 219 217 215 216 222 229 232 231 231 230 231 228 223 223 224 226 227 233 233 221 220 222 223 224 228 227 212 220 211 192 180 173 167 162 158 153 149 148 146
52 82 90 146 185 198 186 187 195 227 294 293 295 92 310 301 309 294 326 281 265 287 272 241 248 250 243 260 276 281 284 288 288 281 268 252 242 241 244 240 239 240 239 240 239 239 238 236 234 231 230 227 227 229 226 224 222 217 214 215 217 218 220 224 226 225 226 227 228 225 223 224 226 228 231 235 230 218 215 208 211 209 200 202 174 351 213 187 174 167 161 153 150 147 145 145 146
79 118 100 233 201 212 193 179 188 214 290 303 300 309 225 280 318 14 304 300 314 309 291 252 258 268 258 263 267 271 273 274 273 266 258 248 239 238 243 244 241 241 241 240 240 240 238 236 234 230 229 227 226 226 222 219 218 214 212 215 216 217 217 218 220 219 221 225 224 222 223 225 228 230 232 237 229 212 203 200 204 193 169 172 162 90 102 146 151 148 144 140 141 143 144 144 145
114 123 162 242 214 241 236 195 204 224 292 308 297 325 260 280 312 42 299 311 308 289 286 293 293 294 295 275 264 275 273 267 265 256 252 250 246 241 243 246 242 244 245 242 241 240 238 235 234 231 228 228 225 222 221 219 216 214 213 215 217 215 215 215 216 216 217 220 220 220 222 225 228 230 230 232 226 207 194 198 202 194 178 168 170 141 110 113 117 125 130 131 136 142 145 145 148
107 143 195 227 194 279 251 203 221 229 234 271 286 320 298 292 329 211 342 327 303 285 259 240 271 289 295 295 294 295 282 269 264 253 251 252 253 249 248 250 248 250 252 248 244 240 239 236 234 232 227 228 224 220 221 221 218 216 214 216 218 216 215 213 212 212 212 216 219 220 220 224 227 226 225 222 216 205 194 196 196 193 186 170 166 157 137 129 128 130 131 130 134 142 149 151 154
93 218 214 208 165 268 255 178 201 193 162 265 290 304 293 307 318 217 163 252 277 287 282 246 259 279 287 295 304 308 291 277 271 259 255 254 255 255 254 256 256 256 253 252 249 243 241 238 235 231 228 229 226 220 220 221 220 219 215 216 218 216 214 211 209 208 208 212 217 219 218 223 225 220 218 214 208 202 194 193 190 188 181 167 163 157 150 144 144 149 146 139 141 148 156 157 156
324 272 267 250 195 237 261 143 176 150 104 273 270 292 305 315 297 230 174 223 253 272 286 287 282 287 299 302 298 300 290 283 278 268 264 261 260 260 260 261 261 258 253 254 254 249 243 240 237 229 226 230 228 223 219 219 221 220 217 217 217 215 213 210 208 206 206 209 214 218 219 219 220 215 214 212 206 200 193 191 189 184 176 165 159 157 155 153 154 159 158 154 154 156 162 162 159
140 267 289 279 205 212 244 242 218 186 225 253 274 327 304 282 293 330 201 233 254 269 285 303 302 307 319 308 292 293 287 282 278 280 282 277 273 272 271 267 266 264 258 257 255 252 248 243 238 227 223 227 226 224 219 217 219 220 220 217 217 216 213 211 209 207 205 207 211 216 217 215 216 214 214 213 205 198 193 192 188 182 177 169 162 160 159 156 158 164 165 163 162 162 167 168 163
163 235 286 301 262 232 237 263 260 235 229 250 315 315 274 265 285 312 276 256 253 269 298 324 334 331 326 315 309 305 295 290 287 292 299 298 293 289 286 281 276 272 265 263 259 255 253 245 237 228 222 224 223 221 217 215 216 218 219 217 216 215 214 213 211 209 205 204 208 211 211 210 213 215 215 214 204 197 194 192 188 183 181 177 170 167 163 159 160 165 166 164 166 166 167 168 166
206 235 293 303 293 295 306 275 255 247 229 195 157 252 267 284 321 281 271 263 263 306 333 340 351 335 322 321 318 311 304 295 291 306 317 320 321 314 306 302 293 282 275 274 270 262 259 250 239 231 224 224 222 217 214 213 212 213 216 216 214 214 214 214 213 211 207 203 203 205 207 208 213 215 214 213 203 196 196 194 192 190 189 187 180 173 167 164 164 166 166 164 166 167 166 168 167
208 265 298 289 292 299 327 320 264 275 248 167 159 244 268 305 355 277 268 271 315 352 343 346 347 324 314 313 310 309 300 293 305 330 335 332 335 332 322 319 309 299 290 284 280 272 265 258 247 238 229 225 221 217 213 213 210 209 210 212 213 214 214 214 213 212 209 204 201 201 204 207 214 216 212 210 203 196 195 195 197 197 193 190 184 176 171 169 168 169 169 166 166 168 167 167 166
266 309 304 298 307 304 335 44 303 319 289 171 175 239 284 337 40 239 270 302 349 350 333 338 327 305 305 301 302 304 298 311 330 345 344 338 340 335 331 332 324 315 306 296 291 282 270 263 255 245 237 229 223 220 217 215 213 210 210 210 212 215 215 213 213 212 209 206 202 200 202 207 212 214 211 208 204 198 195 194 195 196 192 187 183 178 172 171 169 169 171 168 167 169 168 165 164
326 12 313 309 337 328 337 63 333 340 13 188 193 226 311 301 228 252 285 334 350 338 327 331 317 297 296 293 299 308 320 335 343 349 347 347 349 346 346 348 343 330 323 316 304 292 281 271 260 250 243 235 227 223 220 216 213 212 212 213 213 214 214 213 211 211 210 207 204 201 202 206 210 210 208 207 205 200 196 194 192 192 189 184 183 180 173 170 169 167 168 167 165 166 166 163 163
295 50 77 327 353 321 313 353 348 351 352 34 12 331 290 234 243 271 311 5 347 332 334 341 338 325 310 309 321 333 343 349 348 354 357 359 360 359 357 357 357 350 344 338 322 307 296 281 266 256 247 240 233 227 223 218 214 211 211 212 212 213 213 212 211 210 209 208 206 204 203 205 209 209 207 205 204 201 197 194 190 187 184 181 181 181 175 172 170 167 166 165 163 165 166 166 165
299 358 59 29 4 291 313 328 350 358 328 18 12 310 276 273 272 274 335 23 357 334 335 339 340 345 351 355 9 12 9 10 9 9 8 7 5 4 2 0 1 359 356 352 342 329 313 295 276 262 254 247 238 232 227 223 219 216 213 211 210 211 211 211 211 209 208 208 208 207 206 206 207 208 208 205 202 201 198 194 190 185 182 181 179 179 177 173 170 168 166 164 161 163 166 166 165
15 6 327 354 356 293 317 321 45 28 308 4 15 307 294 297 284 281 18 31 19 337 330 331 342 2 18 26 35 34 25 20 20 16 10 8 7 4 3 1 1 360 359 356 353 347 336 320 295 271 260 254 246 238 231 227 225 220 217 215 212 210 209 209 209 208 208 209 209 209 208 207 206 207 207 205 202 201 197 194 191 185 182 181 179 178 176 173 172 169 168 168 162 159 163 163 163
8 30 311 298 327 315 321 319 100 52 335 355 26 285 295 299 301 325 350 5 359 338 327 331 354 25 35 36 40 38 31 22 19 14 9 7 6 4 2 1 0 359 358 357 356 352 347 339 319 290 271 262 254 245 236 230 228 225 221 217 215 211 208 207 208 208 209 208 209 211 210 207 205 205 207 208 206 203 200 197 193 187 183 182 180 178 176 175 174 171 168 170 168 161 161 161 158
319 12 323 287 300 301 315 311 331 33 10 329 311 269 275 286 303 325 336 356 349 339 339 347 19 45 40 35 34 32 30 26 20 11 8 6 5 4 2 1 0 359 358 356 355 353 350 346 334 312 289 274 263 254 244 234 229 227 225 220 217 214 209 208 208 208 209 208 209 211 211 208 204 203 207 210 208 205 203 200 194 188 184 181 179 179 178 176 176 173 167 167 171 166 162 162 156
269 297 301 298 282 241 278 291 316 10 3 298 305 302 293 294 310 327 324 7 3 336 346 17 41 45 35 32 28 24 27 26 19 11 9 7 5 2 1 1 0 359 358 355 354 353 351 348 341 327 307 289 275 264 253 243 235 229 226 222 218 215 211 209 209 208 208 208 209 211 211 208 206 204 207 208 205 203 201 198 194 190 186 181 178 177 176 176 176 174 167 164 168 168 167 165 159
239 262 256 288 296 264 241 257 301 349 334 311 316 312 303 305 324 334 326 2 7 330 7 50 41 40 36 26 23 21 26 24 13 10 10 8 4 2 1 0 359 359 359 357 355 353 350 349 345 336 325 306 286 274 264 252 243 237 233 228 218 213 211 209 208 208 208 208 209 210 210 208 209 208 207 205 202 201 199 196 193 190 188 185 181 176 174 175 176 175 170 163 162 163 164 163 160
251 279 274 285 294 297 292 279 316 1 342 313 318 315 301 305 328 331 331 355 350 342 45 67 37 36 34 27 29 25 25 18 8 11 10 6 3 1 0 360 359 359 359 359 357 353 350 348 346 340 334 321 296 280 272 259 246 238 236 236 227 215 210 208 208 207 207 207 206 207 208 210 212 210 207 203 200 200 197 195 192 188 187 187 186 182 179 177 175 176 172 165 162 158 157 159 160
308 297 310 315 293 298 301 294 343 18 3 309 318 315 298 306 332 323 335 358 343 21 62 66 38 34 34 33 33 29 25 14 11 13 9 5 2 359 358 358 359 358 356 356 355 352 349 347 346 341 337 328 309 288 275 264 253 242 233 232 234 228 215 207 206 207 205 205 206 207 209 213 213 210 207 202 199 199 197 195 193 189 187 186 187 186 184 180 175 175 172 166 163 161 158 158 161
314 302 327 321 308 313 301 290 349 16 22 304 313 305 293 310 333 315 348 49 17 62 71 51 38 29 30 31 31 27 20 15 12 10 6 2 360 357 355 354 356 355 353 353 352 351 349 346 344 341 338 332 319 302 283 271 262 254 245 234 229 230 226 217 211 208 206 205 207 209 209 213 213 208 207 203 199 199 198 196 193 190 188 186 184 181 181 181 178 177 175 170 164 161 162 162 164
313 298 323 310 330 354 312 319 330 321 178 254 292 286 287 311 329 310 6 93 65 72 69 41 34 27 29 30 29 28 19 15 8 3 0 358 357 355 352 350 353 353 351 351 350 349 347 343 342 340 337 334 326 314 295 280 271 263 258 249 235 228 227 226 220 211 204 200 202 205 205 209 211 208 207 204 200 199 199 197 192 190 190 188 184 180 178 179 180 180 178 175 168 161 162 165 168
311 269 299 318 329 337 296 313 325 320 285 185 314 304 288 317 345 316 352 78 64 57 49 33 26 22 28 25 26 28 21 14 4 359 355 352 353 351 345 343 349 352 350 348 346 346 344 341 340 339 336 334 330 324 310 291 278 270 262 253 244 236 227 221 219 213 203 196 196 199 202 206 210 209 206 203 201 199 199 198 194 192 191 189 187 184 181 180 181 182 180 178 175 170 166 169 173
324 260 244 329 320 316 305 317 330 326 318 102 39 328 291 320 347 314 336 70 67 44 43 32 19 17 23 23 21 17 11 7 0 355 351 345 344 344 341 339 343 348 346 345 344 343 342 340 339 338 336 335 333 329 322 305 283 272 267 255 243 238 229 216 211 210 203 199 199 201 205 207 208 207 203 202 200 198 198 197 196 195 192 191 190 187 184 181 180 182 181 178 178 177 171 170 175
327 208 138 339 318 315 314 319 331 313 294 332 77 309 285 312 328 291 338 79 74 41 42 29 17 17 19 20 14 9 3 356 352 348 346 344 340 341 341 338 338 342 342 343 343 342 340 340 339 337 335 334 335 334 329 317 293 274 268 262 252 240 232 222 213 207 201 199 200 202 204 206 207 205 202 201 199 197 197 196 196 196 195 192 190 187 184 181 181 182 182 181 180 179 174 172 177
268 210 44 350 327 315 310 308 297 263 289 316 129 191 271 298 281 290 353 64 56 30 31 19 13 10 5 14 2 2 355 346 347 344 342 343 338 339 342 341 339 339 339 340 341 341 339 338 338 337 336 334 336 336 334 325 305 284 271 266 260 246 236 229 220 211 201 196 196 199 201 203 204 204 203 201 199 197 196 194 194 195 194 192 188 186 185 183 183 183 184 185 184 183 181 178 179
269 274 344 314 298 294 288 280 272 267 312 322 239 199 265 279 284 338 349 46 38 18 18 6 4 1 359 5 349 348 346 339 342 339 338 339 336 337 339 341 340 338 337 336 336 338 338 337 337 336 336 335 335 337 337 332 318 298 281 271 267 256 241 230 224 217 205 195 194 196 198 200 202 203 203 202 200 198 196 194 192 192 192 191 187 185 185 185 185 184 184 184 184 185 186 184 183
283 304 327 298 279 264 252 251 266 306 325 288 262 179 308 288 295 333 354 48 26 360 5 355 356 1 2 1 349 345 343 341 342 340 338 335 330 331 332 334 336 336 337 335 334 335 335 336 335 335 335 334 334 336 338 337 329 313 294 278 273 269 254 235 222 215 208 200 197 197 197 197 198 200 202 202 201 199 196 194 193 192 193 192 189 187 187 186 186 186 186 186 185 186 187 187 187
294 359 358 329 310 260 230 247 282 338 299 206 206 94 48 304 307 69 78 71 32 353 358 349 354 4 2 356 348 344 343 340 338 334 330 325 320 319 320 324 329 332 336 336 335 333 331 332 332 331 333 333 333 336 338 339 335 325 311 293 277 274 269 250 226 214 208 203 199 197 197 196 195 197 200 201 201 199 197 195 194 194 194 193 191 189 189 188 187 188 188 188 188 188 187 189 190
9 37 6 335 326 307 328 351 21 313 260 188 76 26 15 284 287 94 117 69 34 10 358 350 355 0 352 347 344 342 340 334 330 325 322 319 314 311 311 315 324 331 335 334 332 329 326 326 327 328 329 332 333 334 337 339 338 333 323 309 290 278 277 265 239 219 210 206 201 196 195 195 195 196 198 199 199 198 197 195 194 194 193 193 192 192 192 191 189 189 188 188 189 190 190 190 189
26 22 14 13 345 332 335 327 305 252 256 235 35 7 322 263 270 79 87 36 12 358 357 355 359 357 348 345 342 338 334 329 326 322 319 317 311 306 305 310 320 326 329 328 326 325 323 321 322 323 324 327 330 332 336 337 338 336 331 321 305 288 281 275 258 231 211 206 202 196 193 193 194 194 195 197 198 197 196 194 192 192 193 194 193 193 193 192 190 189 189 189 190 192 193 192 191
44 3 56 76 3 331 316 297 300 277 272 285 322 324 273 264 282 113 114 39 347 354 3 5 4 354 344 339 332 326 325 324 322 318 316 315 311 305 301 306 313 316 319 322 322 322 320 317 316 316 317 322 326 329 334 336 337 336 334 329 319 302 286 280 274 253 223 207 200 195 192 192 192 193 193 196 198 198 196 194 192 192 195 195 193 193 192 192 191 190 190 190 191 194 195 195 195
164 188 128 127 150 240 271 272 306 316 298 303 318 299 252 304 203 162 164 340 0 4 3 5 359 343 331 325 319 318 319 319 319 316 314 313 310 306 303 303 306 307 311 315 316 319 319 316 313 311 311 315 321 326 331 335 336 335 334 332 328 317 300 287 281 274 251 220 204 197 194 192 193 194 193 195 197 197 196 194 192 192 194 194 192 190 189 189 189 189 190 190 191 194 196 195 197
222 154 98 113 181 188 232 261 249 284 291 298 314 267 256 310 292 33 7 359 4 1 353 351 341 330 324 320 316 317 317 317 318 315 314 313 310 306 302 299 300 301 305 308 310 314 315 315 313 307 306 309 313 320 327 332 333 332 332 331 330 327 317 301 287 284 269 233 210 202 197 193 194 195 193 193 196 196 195 193 192 192 192 193 192 190 188 188 190 190 191 190 191 195 196 196 197
186 65 159 233 196 151 138 308 301 295 277 286 310 285 289 325 330 358 4 354 351 347 341 339 331 327 325 320 319 319 315 316 316 314 313 312 310 306 299 297 297 296 298 301 304 307 309 313 313 307 303 304 308 313 321 328 332 331 330 329 329 328 326 316 299 291 283 249 215 204 200 195 194 194 193 193 195 195 195 193 192 192 191 191 191 190 190 191 192 192 193 193 193 196 198 198 199
107 137 225 239 4 116 121 53 327 304 267 278 296 291 299 315 318 360 356 341 340 338 334 332 328 328 325 318 319 316 312 314 313 312 311 309 307 304 299 295 294 294 294 293 297 302 304 309 312 307 300 298 302 307 313 321 329 329 326 325 325 325 326 324 315 303 294 270 224 206 203 197 194 194 194 196 195 193 193 194 193 192 190 189 190 190 191 192 192 192 192 194 195 195 195 198 200
113 196 215 86 73 309 49 92 271 273 274 289 295 296 301 276 251 352 341 331 333 332 331 329 325 326 322 317 316 312 311 312 312 312 311 309 306 302 298 294 292 292 291 288 290 295 299 305 309 304 296 292 294 299 304 312 322 325 322 320 320 322 323 326 326 320 308 286 240 209 202 200 196 194 194 196 196 191 190 192 193 193 190 188 189 190 190 191 192 193 193 193 193 193 192 195 198
33 30 35 58 141 192 232 152 178 246 270 286 303 305 303 160 352 336 327 323 330 331 328 324 321 321 318 314 312 309 308 307 308 309 307 306 304 301 299 295 290 288 286 285 285 288 294 301 305 301 293 288 287 291 296 301 311 319 319 316 317 320 322 325 327 327 320 299 258 216 201 200 198 195 194 194 194 192 190 191 193 192 190 187 188 189 190 189 191 194 195 194 193 193 193 195 196
35 42 42 351 354 102 231 222 159 156 217 249 304 293 279 83 2 323 314 317 326 329 323 317 316 315 311 309 307 305 304 303 303 304 303 301 300 299 299 296 291 287 283 282 280 282 290 297 298 295 290 284 282 285 290 293 301 312 317 316 315 317 320 323 326 326 324 313 283 233 207 202 198 194 193 192 192 192 191 190 191 192 191 189 187 187 188 188 189 192 194 194 193 193 194 195 195
146 139 161 192 202 63 353 292 219 127 154 188 254 278 275 59 7 303 308 316 319 324 317 312 313 310 306 305 302 300 300 300 300 299 299 298 296 295 294 293 292 288 283 281 279 280 286 291 292 289 285 280 278 281 286 289 294 303 312 314 313 314 317 320 324 325 323 320 303 254 214 202 200 196 193 191 190 191 191 190 190 192 192 191 188 187 186 187 188 190 191 192 192 193 193 193 193